Weather History for Las Vegas, NV

Change the Weather History Date:

Wednesday, October 16, 2013

  Actual Average Record
Temperature  
Mean Temperature 63 °F 70 °F  
Max Temperature 72 °F 81 °F 96 °F (1991)
Min Temperature 54 °F 58 °F 42 °F (1984)
Degree Days  
Heating Degree Days 2 1  
Month to date heating degree days 18 6  
Since 1 July heating degree days 18 7  
Cooling Degree Days 0 5  
Month to date cooling degree days 56 129  
Year to date cooling degree days 3714 3506  
Growing Degree Days 13 (Base 50)    
Moisture  
Dew Point 22 °F    
Average Humidity 23    
Maximum Humidity 32    
Minimum Humidity 14    
Precipitation  
Precipitation 0.00 in 0.01 in 0.00 in (2014)
Month to date precipitation T 0.11  
Year to date precipitation 1.54 3.17  
Snow  
Snow 0.00 in 0.00 in 0.00 in ()
Month to date snowfall 0.0 0.0  
Since 1 July snowfall 0.0 0.0  
Since 1 September snowfall 0.0 0.0  
Snow Depth 0.00 in    
Sea Level Pressure  
Sea Level Pressure 30.07 in    
Wind  
Wind Speed 4 mph (South)    
Max Wind Speed 10 mph    
Max Gust Speed 15 mph    
Visibility 10 miles    
Events      
T = Trace of Precipitation, MM = Missing Value Source: NWS Daily Summary

Daily Weather History Graph

Daily Weather History Graph

Search for Another Location

Airport:

Trip Planner

Search our weather history database for the weather conditions in past years. The results will help you decide how hot, cold, wet, or windy it might be!

Date:

Astronomy

Oct. 16, 2013 Rise Set
Actual Time 6:48 AM PDT 6:03 PM PDT
Civil Twilight 6:22 AM PDT 6:28 PM PDT
Nautical Twilight 5:52 AM PDT 6:58 PM PDT
Astronomical Twilight 5:23 AM PDT 7:28 PM PDT
Moon 4:42 PM PDT (10/16) 4:24 AM PDT (10/16)
Length of Visible Light 12h 06m
Length of Day
11h 14m
Waxing Gibbous, 94% of the Moon is Illuminated
Oct 16
Waxing Gibbous
Oct 18
Full
Oct 26
Last Quarter
Nov 3
New
Nov 9
First Quarter

Hourly Weather History & Observations

Time (PDT) Temp. Dew Point Humidity Pressure Visibility Wind Dir Wind Speed Gust Speed Precip Events Conditions
12:56 AM 60.1 °F 27.0 °F 28% 30.07 in 10.0 mi NNE 5.8 mph - N/A   Clear
1:56 AM 60.1 °F 26.1 °F 27% 30.06 in 10.0 mi NW 5.8 mph - N/A   Clear
2:56 AM 57.9 °F 26.1 °F 30% 30.07 in 10.0 mi Calm Calm - N/A   Clear
3:56 AM 57.9 °F 26.1 °F 30% 30.07 in 10.0 mi NE 5.8 mph - N/A   Clear
4:56 AM 55.9 °F 26.1 °F 32% 30.08 in 10.0 mi Calm Calm - N/A   Clear
5:56 AM 55.9 °F 26.1 °F 32% 30.10 in 10.0 mi NE 3.5 mph - N/A   Clear
6:56 AM 55.0 °F 26.1 °F 33% 30.13 in 10.0 mi ENE 3.5 mph - N/A   Clear
7:56 AM 57.0 °F 25.0 °F 29% 30.15 in 10.0 mi Calm Calm - N/A   Clear
8:56 AM 60.1 °F 25.0 °F 26% 30.17 in 10.0 mi Calm Calm - N/A   Clear
9:56 AM 63.0 °F 23.0 °F 22% 30.16 in 10.0 mi NNE 4.6 mph - N/A   Clear
10:56 AM 64.9 °F 21.9 °F 19% 30.16 in 10.0 mi Variable 4.6 mph - N/A   Clear
11:56 AM 66.9 °F 21.0 °F 17% 30.14 in 10.0 mi WNW 3.5 mph - N/A   Clear
12:56 PM 68.0 °F 19.9 °F 16% 30.11 in 10.0 mi Calm Calm - N/A   Clear
1:56 PM 69.1 °F 19.0 °F 15% 30.07 in 10.0 mi Calm Calm - N/A   Clear
2:56 PM 69.1 °F 19.0 °F 15% 30.06 in 10.0 mi South 9.2 mph - N/A   Clear
3:56 PM 71.1 °F 19.0 °F 14% 30.03 in 10.0 mi SE 4.6 mph - N/A   Clear
4:56 PM 71.1 °F 19.0 °F 14% 30.02 in 10.0 mi Calm Calm - N/A   Clear
5:56 PM 69.1 °F 19.9 °F 15% 30.02 in 10.0 mi SSW 5.8 mph - N/A   Partly Cloudy
6:56 PM 68.0 °F 21.0 °F 17% 30.02 in 10.0 mi South 4.6 mph - N/A   Partly Cloudy
7:56 PM 66.0 °F 21.0 °F 18% 30.03 in 10.0 mi SSW 6.9 mph - N/A   Partly Cloudy
8:56 PM 63.0 °F 21.0 °F 20% 30.03 in 10.0 mi SSW 8.1 mph - N/A   Partly Cloudy
9:56 PM 61.0 °F 21.0 °F 21% 30.03 in 10.0 mi SW 6.9 mph - N/A   Clear
10:56 PM 59.0 °F 21.0 °F 23% 30.02 in 10.0 mi SSW 6.9 mph - N/A   Clear
11:56 PM 55.9 °F 19.9 °F 25% 30.01 in 10.0 mi SSW 9.2 mph - N/A   Partly Cloudy